Location: Grust
(42.8833°N, 0.0333°W)
Time: 20:00:36
(UTC+00:00)

S3M - Pass Details

Date: 25 October 2020
Orbit: 950 x 1003 km, 83.0° (Epoch: 23 November)

Event Time Altitude Azimuth Distance (km) Brightness Sun altitude
Rises 18:59:11 0° 186° (S) 3,607 7.0 -22.1°
Reaches altitude 10° 19:01:39 10° 187° (S) 2,666 6.3 -22.6°
Maximum altitude 19:07:45 87° 276° (W) 960 3.9 -23.7°
Drops below altitude 10° 19:13:56 10° 7° (N) 2,700 6.3 -24.8°
Sets 19:16:27 0° 8° (N) 3,657 7.0 -25.3°
